Regional Weather Roundup
Issued by NWS

Home | Current Version | Previous Version | Graphics & Text | Print | Product List | Glossary On
Versions: 1 2 3 4 5 6 7 8 9 10 11 12 13 14 15 16 17 18 19 20 21 22 23 24 25 26 27 28 29 30 31 32 33 34 35 36 37 38 39 40 41 42 43 44 45 46 47 48 49 50
000
ASUS43 KLMK 240702
RWRKY
KENTUCKY REGIONAL WEATHER ROUNDUP
NATIONAL WEATHER SERVICE LOUISVILLE KY
200 AM EST TUE JAN 24 2017

NOTE "FAIR" INDICATES FEW OR NO CLOUDS BELOW 12,000 FEET
WITH NO SIGNIFICANT WEATHER AND/OR OBSTRUCTIONS TO VISIBILITY.

KYZ001>023-026-027-061>063-070>075-240800-
WESTERN AND SOUTH CENTRAL KENTUCKY

CITY           SKY/WX    TMP DP  RH WIND       PRES   REMARKS
PADUCAH        CLOUDY    42  33  70 NW3       29.87S
HENDERSON      CLOUDY    41  34  75 NW7       29.84S
OWENSBORO      CLOUDY    41  35  79 N10       29.84S
HOPKINSVILLE   CLOUDY    41  35  78 NW10      29.84S
BOWLING GREEN  CLOUDY    42  35  76 NW8       29.83S
GLASGOW        NOT AVBL
$$

KYZ024-025-028>034-038-045-046-053-240800-
NORTH CENTRAL KENTUCKY

CITY           SKY/WX    TMP DP  RH WIND       PRES   REMARKS
LOUISVILLE/SDF CLOUDY    42  36  79 NW10      29.78S
LOUISVILLE/LOU CLOUDY    42  37  82 NW13      29.79R
FORT KNOX      CLOUDY    39  37  93 W9        29.78R WCI  33
$$

KYZ035>037-039>044-047>052-055>060-089>105-240800-
NORTHEAST KENTUCKY

CITY           SKY/WX    TMP DP  RH WIND       PRES   REMARKS
LEXINGTON      LGT RAIN  41  39  93 NW14G21   29.74R FOG
COVINGTON      CLOUDY    42  40  92 W9        29.72R
FRANKFORT      CLOUDY    42  37  82 NW7G20    29.74R
$$

KYZ054-064>069-076>088-106>120-240800-
SOUTHEAST KENTUCKY

CITY           SKY/WX    TMP DP  RH WIND       PRES   REMARKS
JACKSON        CLOUDY    42  41  96 W9        29.68R FOG
LONDON         CLOUDY    41  32  70 W12G22    29.73R HAZE
SOMERSET       NOT AVBL
MIDDLESBORO    CLOUDY    42  41  95 NW10G18   29.72S
MONTICELLO     CLOUDY    40  38  93 W9        29.80R WCI  34
$$




USA.gov is the U.S. government's official web portal to all federal, state and local government web resources and services.